SJX851 RJCC-RCTP

Flight info

Callsign SJX851
Flight time 3h 58m
Altitude 40000
Route DALBI Y120 TAPPI Y12 ARIKA Y14 MIHOU Y45 HKC Y50 IGMON A1 DRAKE DRAKE1A
Aircraft A359/H-SDE2E3GHIJ3J4J5LM1ORWXY/LB1D1

Departure

Time 2026-05-08 03:23
Airport New Chitose Airport (RJCC)

Arrival

Time 2026-05-08 07:21
Airport Taiwan Taoyuan International Airport (RCTP)
Time Latitude Longitude Altitude Speed Heading
2026-05-08 02:47 42.78551 141.67514 98 ft 0 kts 83°
2026-05-08 03:11 42.78549 141.67502 97 ft 4 kts 83°
2026-05-08 03:11 42.78546 141.67468 96 ft 2 kts 83°
2026-05-08 03:12 42.78540 141.67438 94 ft 4 kts 50°
2026-05-08 03:12 42.78520 141.67418 95 ft 4 kts 14°
2026-05-08 03:12 42.78497 141.67415 96 ft 1 kts 353°
2026-05-08 03:15 42.78503 141.67414 97 ft 2 kts 353°
2026-05-08 03:15 42.78547 141.67406 99 ft 9 kts 353°
2026-05-08 03:16 42.78615 141.67395 96 ft 11 kts 353°
2026-05-08 03:16 42.78693 141.67381 93 ft 12 kts 353°
2026-05-08 03:16 42.78782 141.67366 92 ft 14 kts 353°
2026-05-08 03:16 42.78880 141.67349 91 ft 15 kts 353°
2026-05-08 03:17 42.78983 141.67331 92 ft 13 kts 353°
2026-05-08 03:17 42.79045 141.67321 91 ft 7 kts 353°
2026-05-08 03:17 42.79093 141.67312 92 ft 7 kts 353°
2026-05-08 03:17 42.79161 141.67301 89 ft 11 kts 354°
2026-05-08 03:18 42.79219 141.67346 91 ft 9 kts 62°
2026-05-08 03:18 42.79230 141.67421 94 ft 8 kts 82°
2026-05-08 03:18 42.79240 141.67530 94 ft 16 kts 82°
2026-05-08 03:18 42.79256 141.67694 96 ft 18 kts 82°
2026-05-08 03:19 42.79269 141.67859 96 ft 17 kts 88°
2026-05-08 03:19 42.79260 141.68017 93 ft 16 kts 106°
2026-05-08 03:19 42.79227 141.68157 97 ft 11 kts 116°
2026-05-08 03:19 42.79202 141.68225 95 ft 11 kts 117°
2026-05-08 03:20 42.79162 141.68311 97 ft 11 kts 128°
2026-05-08 03:20 42.79111 141.68390 96 ft 13 kts 131°
2026-05-08 03:20 42.79031 141.68475 97 ft 15 kts 144°
2026-05-08 03:20 42.78952 141.68534 98 ft 11 kts 156°
2026-05-08 03:21 42.78883 141.68570 100 ft 10 kts 164°
2026-05-08 03:21 42.78823 141.68606 97 ft 9 kts 130°
2026-05-08 03:21 42.78817 141.68691 96 ft 10 kts 82°
2026-05-08 03:21 42.78822 141.68774 99 ft 7 kts 97°
2026-05-08 03:22 42.78804 141.68811 100 ft 4 kts 140°
2026-05-08 03:22 42.78782 141.68820 97 ft 3 kts 171°
2026-05-08 03:22 42.78777 141.68821 95 ft 0 kts 173°
2026-05-08 03:22 42.78775 141.68821 95 ft 3 kts 173°
2026-05-08 03:23 42.78559 141.68861 97 ft 74 kts 172°
2026-05-08 03:23 42.77746 141.69002 91 ft 158 kts 173°
2026-05-08 03:23 42.76550 141.69219 778 ft 178 kts 172°
2026-05-08 03:23 42.75308 141.69461 1903 ft 185 kts 171°
2026-05-08 03:24 42.73998 141.69722 2537 ft 198 kts 172°
2026-05-08 03:24 42.72583 141.70002 3068 ft 210 kts 173°
2026-05-08 03:24 42.71087 141.70297 3516 ft 228 kts 173°
2026-05-08 03:24 42.69470 141.70607 3885 ft 246 kts 173°
2026-05-08 03:25 42.67751 141.70940 4549 ft 252 kts 173°
2026-05-08 03:25 42.66015 141.71280 5348 ft 252 kts 174°
2026-05-08 03:25 42.64273 141.71618 6162 ft 253 kts 175°
2026-05-08 03:25 42.62531 141.71954 6789 ft 254 kts 176°
2026-05-08 03:26 42.60771 141.72294 7410 ft 256 kts 176°
2026-05-08 03:26 42.58993 141.72403 7983 ft 256 kts 191°
2026-05-08 03:26 42.57374 141.71502 8584 ft 253 kts 219°
2026-05-08 03:26 42.56279 141.69699 9276 ft 253 kts 238°
2026-05-08 03:27 42.55434 141.67599 9960 ft 254 kts 240°
2026-05-08 03:27 42.54601 141.65464 10406 ft 262 kts 240°
2026-05-08 03:27 42.53715 141.63219 10708 ft 277 kts 240°
2026-05-08 03:27 42.52778 141.60866 10996 ft 290 kts 240°
2026-05-08 03:28 42.51794 141.58406 11287 ft 303 kts 240°
2026-05-08 03:28 42.50776 141.55865 11702 ft 309 kts 240°
2026-05-08 03:28 42.49743 141.53292 12250 ft 312 kts 240°
2026-05-08 03:28 42.48704 141.50708 12828 ft 313 kts 241°
2026-05-08 03:29 42.47660 141.48117 13426 ft 313 kts 241°
2026-05-08 03:29 42.46634 141.45579 14010 ft 311 kts 240°
2026-05-08 03:29 42.45589 141.42996 14434 ft 315 kts 241°
2026-05-08 03:29 42.44530 141.40370 14790 ft 320 kts 241°
2026-05-08 03:30 42.42371 141.35030 15593 ft 327 kts 241°
2026-05-08 03:30 42.40158 141.29570 16392 ft 334 kts 241°
2026-05-08 03:31 42.37914 141.24045 17177 ft 341 kts 241°
2026-05-08 03:31 42.35606 141.18374 18014 ft 347 kts 240°
2026-05-08 03:32 42.34439 141.15512 18355 ft 349 kts 240°
2026-05-08 03:32 42.33266 141.12636 18777 ft 349 kts 240°
2026-05-08 03:32 42.32096 141.09771 19257 ft 347 kts 240°
2026-05-08 03:32 42.30930 141.06918 19711 ft 346 kts 240°
2026-05-08 03:33 42.29779 141.04106 20156 ft 346 kts 240°
2026-05-08 03:33 42.28616 141.01267 20588 ft 345 kts 240°
2026-05-08 03:33 42.27454 140.98432 21013 ft 345 kts 240°
2026-05-08 03:33 42.26292 140.95601 21432 ft 345 kts 240°
2026-05-08 03:34 42.25131 140.92773 21871 ft 344 kts 239°
2026-05-08 03:34 42.23974 140.89958 22313 ft 343 kts 239°
2026-05-08 03:34 42.22819 140.87152 22681 ft 343 kts 239°
2026-05-08 03:34 42.21657 140.84333 23050 ft 343 kts 239°
2026-05-08 03:35 42.20498 140.81522 23401 ft 344 kts 239°
2026-05-08 03:35 42.19338 140.78702 23676 ft 344 kts 239°
2026-05-08 03:35 42.18105 140.75722 23924 ft 346 kts 239°
2026-05-08 03:35 42.16927 140.72877 24148 ft 348 kts 239°
2026-05-08 03:36 42.15763 140.70067 24392 ft 349 kts 239°
2026-05-08 03:36 42.14578 140.67207 24637 ft 350 kts 238°
2026-05-08 03:36 42.13390 140.64344 24913 ft 350 kts 238°
2026-05-08 03:36 42.12200 140.61478 25150 ft 351 kts 238°
2026-05-08 03:37 42.10984 140.58617 25375 ft 352 kts 236°
2026-05-08 03:37 42.09569 140.55928 25601 ft 352 kts 230°
2026-05-08 03:37 42.07861 140.53555 25883 ft 355 kts 223°
2026-05-08 03:37 42.05870 140.51554 26348 ft 359 kts 215°
2026-05-08 03:38 42.03646 140.49982 26876 ft 364 kts 207°
2026-05-08 03:38 42.01276 140.48851 27380 ft 369 kts 203°
2026-05-08 03:38 41.98805 140.47866 27934 ft 371 kts 201°
2026-05-08 03:38 41.96314 140.46951 28554 ft 372 kts 201°
2026-05-08 03:39 41.93801 140.46049 29012 ft 375 kts 201°
2026-05-08 03:39 41.91276 140.45141 29490 ft 377 kts 201°
2026-05-08 03:39 41.88738 140.44219 29919 ft 379 kts 201°
2026-05-08 03:39 41.86182 140.43280 30260 ft 382 kts 201°
2026-05-08 03:40 41.83646 140.42341 30614 ft 385 kts 201°
2026-05-08 03:40 41.81056 140.41378 30943 ft 388 kts 201°
2026-05-08 03:40 41.78449 140.40408 31295 ft 390 kts 201°
2026-05-08 03:40 41.75829 140.39434 31644 ft 392 kts 201°
2026-05-08 03:41 41.73192 140.38454 31955 ft 394 kts 201°
2026-05-08 03:41 41.70549 140.37473 32262 ft 396 kts 201°
2026-05-08 03:41 41.67888 140.36487 32560 ft 398 kts 201°
2026-05-08 03:41 41.65209 140.35496 32848 ft 400 kts 201°
2026-05-08 03:42 41.62560 140.34517 33126 ft 402 kts 201°
2026-05-08 03:42 41.59866 140.33522 33426 ft 402 kts 200°
2026-05-08 03:42 41.57174 140.32532 33801 ft 401 kts 200°
2026-05-08 03:42 41.54491 140.31547 34168 ft 399 kts 200°
2026-05-08 03:43 41.51821 140.30563 34517 ft 397 kts 201°
2026-05-08 03:43 41.49156 140.29580 34824 ft 398 kts 201°
2026-05-08 03:43 41.46490 140.28597 35114 ft 397 kts 201°
2026-05-08 03:43 41.43829 140.27617 35427 ft 396 kts 201°
2026-05-08 03:44 41.41176 140.26642 35718 ft 395 kts 201°
2026-05-08 03:44 41.38560 140.25681 35994 ft 395 kts 201°
2026-05-08 03:44 41.35919 140.24712 36267 ft 394 kts 201°
2026-05-08 03:44 41.33268 140.23740 36434 ft 395 kts 201°
2026-05-08 03:45 41.30616 140.22768 36642 ft 396 kts 201°
2026-05-08 03:45 41.27962 140.21797 36901 ft 395 kts 201°
2026-05-08 03:45 41.25316 140.20830 37171 ft 394 kts 201°
2026-05-08 03:45 41.22672 140.19865 37430 ft 394 kts 201°
2026-05-08 03:46 41.20034 140.18903 37662 ft 393 kts 201°
2026-05-08 03:46 41.17434 140.17955 37902 ft 392 kts 201°
2026-05-08 03:46 41.14806 140.16998 38133 ft 392 kts 201°
2026-05-08 03:46 41.12177 140.16044 38369 ft 391 kts 201°
2026-05-08 03:47 41.09548 140.15116 38536 ft 391 kts 201°
2026-05-08 03:47 41.04262 140.13295 38725 ft 394 kts 200°
2026-05-08 03:47 41.01607 140.12385 38854 ft 394 kts 200°
2026-05-08 03:48 40.98946 140.11472 38959 ft 395 kts 200°
2026-05-08 03:48 40.93652 140.09649 39165 ft 397 kts 200°
2026-05-08 03:48 40.90978 140.08727 39269 ft 398 kts 201°
2026-05-08 03:49 40.88297 140.07803 39368 ft 398 kts 201°
2026-05-08 03:49 40.85614 140.06879 39475 ft 399 kts 201°
2026-05-08 03:49 40.82924 140.05953 39505 ft 400 kts 200°
2026-05-08 03:49 40.80229 140.05027 39614 ft 400 kts 200°
2026-05-08 03:50 40.77532 140.04101 39718 ft 401 kts 200°
2026-05-08 03:50 40.72111 140.02241 39747 ft 403 kts 200°
2026-05-08 03:51 40.66673 140.00381 39748 ft 404 kts 200°
2026-05-08 03:51 40.61274 139.98537 39746 ft 404 kts 200°
2026-05-08 03:52 40.55836 139.96680 39749 ft 404 kts 200°
2026-05-08 03:52 40.50397 139.94828 39751 ft 404 kts 200°
2026-05-08 03:53 40.44994 139.92841 39740 ft 401 kts 205°
2026-05-08 03:53 40.39990 139.89862 39744 ft 397 kts 211°
2026-05-08 03:54 40.35072 139.86566 39751 ft 397 kts 211°
2026-05-08 03:54 40.30171 139.83233 39745 ft 397 kts 211°
2026-05-08 03:55 40.25256 139.79912 39748 ft 398 kts 211°
2026-05-08 03:55 40.20364 139.76628 39742 ft 398 kts 211°
2026-05-08 03:56 40.15437 139.73330 39744 ft 398 kts 211°
2026-05-08 03:56 40.10510 139.70038 39741 ft 398 kts 211°
2026-05-08 03:57 40.05618 139.66774 39706 ft 398 kts 211°
2026-05-08 03:57 40.00675 139.63517 39744 ft 399 kts 210°
2026-05-08 03:58 39.95706 139.60295 39750 ft 399 kts 210°
2026-05-08 03:58 39.90738 139.57079 39741 ft 398 kts 211°
2026-05-08 03:59 39.85813 139.53888 39744 ft 398 kts 211°
2026-05-08 03:59 39.80852 139.50675 39743 ft 398 kts 211°
2026-05-08 04:00 39.75901 139.47473 39734 ft 398 kts 211°
2026-05-08 04:00 39.70932 139.44265 39747 ft 399 kts 210°
2026-05-08 04:01 39.65990 139.41080 39745 ft 399 kts 210°
2026-05-08 04:01 39.61014 139.37878 39739 ft 399 kts 210°
2026-05-08 04:02 39.56030 139.34676 39744 ft 400 kts 211°
2026-05-08 04:02 39.51032 139.31471 39746 ft 401 kts 211°
2026-05-08 04:03 39.46030 139.28268 39739 ft 401 kts 210°
2026-05-08 04:03 39.38555 139.23492 39744 ft 401 kts 210°
2026-05-08 04:04 39.33546 139.20297 39746 ft 401 kts 210°
2026-05-08 04:04 39.28536 139.17107 39747 ft 401 kts 210°
2026-05-08 04:05 39.23522 139.13920 39747 ft 402 kts 210°
2026-05-08 04:05 39.18529 139.10750 39746 ft 403 kts 210°
2026-05-08 04:06 39.13492 139.07559 39753 ft 403 kts 210°
2026-05-08 04:06 39.08453 139.04371 39762 ft 404 kts 211°
2026-05-08 04:07 39.03412 139.01187 39742 ft 404 kts 211°
2026-05-08 04:07 38.98405 138.98030 39740 ft 404 kts 211°
2026-05-08 04:08 38.93360 138.94853 39714 ft 404 kts 210°
2026-05-08 04:08 38.88308 138.91677 39745 ft 405 kts 211°
2026-05-08 04:09 38.83239 138.88495 39739 ft 406 kts 211°
2026-05-08 04:09 38.78197 138.85335 39743 ft 406 kts 210°
2026-05-08 04:10 38.73126 138.82163 39740 ft 406 kts 211°
2026-05-08 04:10 38.68045 138.78989 39745 ft 406 kts 211°
2026-05-08 04:11 38.62958 138.75817 39737 ft 407 kts 210°
2026-05-08 04:11 38.57901 138.72668 39744 ft 407 kts 211°
2026-05-08 04:12 38.52798 138.69495 39745 ft 408 kts 211°
2026-05-08 04:12 38.47688 138.66324 39750 ft 408 kts 210°
2026-05-08 04:13 38.42576 138.63156 39750 ft 408 kts 210°
2026-05-08 04:13 38.37494 138.60012 39742 ft 409 kts 211°
2026-05-08 04:14 38.32374 138.56848 39751 ft 410 kts 211°
2026-05-08 04:14 38.27243 138.53684 39757 ft 410 kts 210°
2026-05-08 04:15 38.22110 138.50523 39759 ft 410 kts 211°
2026-05-08 04:15 38.16975 138.47366 39766 ft 410 kts 211°
2026-05-08 04:16 38.11857 138.44171 39744 ft 408 kts 213°
2026-05-08 04:16 38.07299 138.40052 39764 ft 403 kts 225°
2026-05-08 04:17 38.03769 138.34591 39766 ft 401 kts 238°
2026-05-08 04:17 38.00972 138.28452 39769 ft 402 kts 240°
2026-05-08 04:18 37.98299 138.22285 39767 ft 402 kts 240°
2026-05-08 04:18 37.95593 138.16087 39772 ft 402 kts 240°
2026-05-08 04:19 37.92865 138.09909 39773 ft 402 kts 240°
2026-05-08 04:19 37.90129 138.03739 39769 ft 402 kts 240°
2026-05-08 04:20 37.87404 137.97622 39775 ft 402 kts 240°
2026-05-08 04:20 37.84658 137.91464 39774 ft 402 kts 240°
2026-05-08 04:21 37.81909 137.85310 39770 ft 402 kts 240°
2026-05-08 04:21 37.79158 137.79161 39769 ft 402 kts 239°
2026-05-08 04:22 37.76422 137.73055 39771 ft 401 kts 240°
2026-05-08 04:22 37.73671 137.66928 39767 ft 401 kts 240°
2026-05-08 04:23 37.70911 137.60794 39767 ft 401 kts 240°
2026-05-08 04:23 37.68154 137.54678 39766 ft 401 kts 240°
2026-05-08 04:24 37.65411 137.48604 39772 ft 400 kts 240°
2026-05-08 04:24 37.62650 137.42502 39764 ft 400 kts 240°
2026-05-08 04:25 37.59886 137.36404 39764 ft 400 kts 240°
2026-05-08 04:25 37.57124 137.30322 39769 ft 399 kts 240°
2026-05-08 04:26 37.54364 137.24255 39770 ft 399 kts 240°
2026-05-08 04:26 37.51620 137.18237 39778 ft 399 kts 240°
2026-05-08 04:27 37.48857 137.12186 39782 ft 398 kts 240°
2026-05-08 04:27 37.46090 137.06139 39794 ft 399 kts 240°
2026-05-08 04:28 37.43321 137.00098 39797 ft 398 kts 240°
2026-05-08 04:28 37.40570 136.94107 39800 ft 398 kts 240°
2026-05-08 04:29 37.37795 136.88075 39803 ft 399 kts 240°
2026-05-08 04:29 37.35014 136.82043 39782 ft 399 kts 239°
2026-05-08 04:30 37.32228 136.76011 39784 ft 399 kts 240°
2026-05-08 04:30 37.29458 136.70023 39788 ft 399 kts 240°
2026-05-08 04:31 37.26675 136.64016 39786 ft 398 kts 239°
2026-05-08 04:31 37.23888 136.58015 39787 ft 398 kts 239°
2026-05-08 04:32 37.21099 136.52019 39789 ft 398 kts 239°
2026-05-08 04:32 37.18308 136.46029 39787 ft 397 kts 240°
2026-05-08 04:33 37.15534 136.40088 39791 ft 397 kts 240°
2026-05-08 04:33 37.12743 136.34120 39791 ft 397 kts 240°
2026-05-08 04:34 37.09994 136.28254 39795 ft 397 kts 240°
2026-05-08 04:34 37.07198 136.22297 39798 ft 397 kts 240°
2026-05-08 04:35 37.04415 136.16377 39800 ft 397 kts 240°
2026-05-08 04:35 37.01612 136.10427 39793 ft 397 kts 239°
2026-05-08 04:36 36.98805 136.04481 39799 ft 397 kts 240°
2026-05-08 04:36 36.95995 135.98538 39802 ft 397 kts 240°
2026-05-08 04:37 36.93184 135.92602 39803 ft 397 kts 239°
2026-05-08 04:37 36.90386 135.86705 39798 ft 397 kts 239°
2026-05-08 04:38 36.87570 135.80779 39802 ft 397 kts 239°
2026-05-08 04:38 36.84749 135.74855 39800 ft 397 kts 239°
2026-05-08 04:39 36.81926 135.68935 39808 ft 397 kts 239°
2026-05-08 04:39 36.79105 135.63033 39806 ft 394 kts 239°
2026-05-08 04:40 36.76322 135.57219 39811 ft 392 kts 239°
2026-05-08 04:40 36.73526 135.51388 39813 ft 392 kts 239°
2026-05-08 04:41 36.70723 135.45552 39814 ft 392 kts 239°
2026-05-08 04:41 36.67922 135.39732 39816 ft 392 kts 239°
2026-05-08 04:42 36.65138 135.33956 39812 ft 392 kts 239°
2026-05-08 04:42 36.62330 135.28141 39815 ft 392 kts 239°
2026-05-08 04:43 36.59521 135.22334 39819 ft 391 kts 239°
2026-05-08 04:43 36.56711 135.16534 39824 ft 391 kts 239°
2026-05-08 04:44 36.53898 135.10739 39824 ft 391 kts 239°
2026-05-08 04:44 36.51103 135.04991 39820 ft 391 kts 239°
2026-05-08 04:45 36.48287 134.99210 39827 ft 391 kts 239°
2026-05-08 04:45 36.45468 134.93431 39832 ft 391 kts 239°
2026-05-08 04:46 36.42650 134.87664 39841 ft 391 kts 239°
2026-05-08 04:46 36.39848 134.81941 39837 ft 390 kts 239°
2026-05-08 04:47 36.37026 134.76187 39840 ft 390 kts 239°
2026-05-08 04:47 36.34203 134.70439 39840 ft 390 kts 239°
2026-05-08 04:48 36.31376 134.64696 39849 ft 390 kts 239°
2026-05-08 04:48 36.28569 134.59000 39849 ft 390 kts 239°
2026-05-08 04:49 36.25738 134.53266 39851 ft 390 kts 239°
2026-05-08 04:49 36.22901 134.47540 39849 ft 390 kts 239°
2026-05-08 04:50 36.20065 134.41817 39853 ft 390 kts 239°
2026-05-08 04:50 36.17250 134.36139 39856 ft 390 kts 239°
2026-05-08 04:51 36.14409 134.30423 39862 ft 390 kts 239°
2026-05-08 04:51 36.11566 134.24714 39867 ft 390 kts 239°
2026-05-08 04:52 36.08718 134.19005 39868 ft 390 kts 239°
2026-05-08 04:52 36.05885 134.13336 39874 ft 390 kts 239°
2026-05-08 04:53 36.03035 134.07642 39873 ft 390 kts 240°
2026-05-08 04:53 36.00174 134.01935 39872 ft 390 kts 240°
2026-05-08 04:54 35.97314 133.96242 39879 ft 390 kts 240°
2026-05-08 04:54 35.94467 133.90585 39882 ft 390 kts 240°
2026-05-08 04:55 35.91603 133.84899 39882 ft 390 kts 240°
2026-05-08 04:55 35.88735 133.79215 39881 ft 390 kts 239°
2026-05-08 04:56 35.85864 133.73535 39879 ft 390 kts 239°
2026-05-08 04:56 35.82989 133.67856 39879 ft 391 kts 240°
2026-05-08 04:57 35.80128 133.62214 39919 ft 391 kts 240°
2026-05-08 04:57 35.77244 133.56538 39892 ft 391 kts 240°
2026-05-08 04:58 35.74360 133.50870 39875 ft 391 kts 240°
2026-05-08 04:58 35.71487 133.45232 39905 ft 392 kts 240°
2026-05-08 04:59 35.68589 133.39556 39915 ft 391 kts 240°
2026-05-08 04:59 35.65694 133.33894 39872 ft 391 kts 240°
2026-05-08 05:00 35.63288 133.29196 39904 ft 391 kts 240°
2026-05-08 05:00 35.59918 133.22626 39939 ft 391 kts 240°
2026-05-08 05:01 35.57018 133.16983 39914 ft 391 kts 240°
2026-05-08 05:01 35.54416 133.12428 39892 ft 394 kts 234°
2026-05-08 05:02 35.50367 133.07812 39903 ft 404 kts 221°
2026-05-08 05:02 35.44665 133.03752 39911 ft 410 kts 216°
2026-05-08 05:03 35.39596 133.00497 39914 ft 412 kts 216°
2026-05-08 05:03 35.35379 132.97796 39911 ft 412 kts 216°
2026-05-08 05:04 35.30319 132.94525 39911 ft 411 kts 216°
2026-05-08 05:04 35.25256 132.91237 39908 ft 412 kts 216°
2026-05-08 05:05 35.20198 132.87952 39906 ft 412 kts 216°
2026-05-08 05:05 35.15172 132.84688 39909 ft 412 kts 216°
2026-05-08 05:06 35.10138 132.81361 39897 ft 411 kts 217°
2026-05-08 05:06 35.05105 132.78025 39900 ft 412 kts 217°
2026-05-08 05:07 35.00067 132.74702 39903 ft 412 kts 217°
2026-05-08 05:07 34.95057 132.71402 39899 ft 412 kts 217°
2026-05-08 05:08 34.90016 132.68093 39902 ft 412 kts 216°
2026-05-08 05:08 34.84968 132.64786 39886 ft 412 kts 216°
2026-05-08 05:09 34.79913 132.61477 39896 ft 413 kts 216°
2026-05-08 05:09 34.74858 132.58172 39897 ft 412 kts 217°
2026-05-08 05:10 34.67311 132.53246 39891 ft 412 kts 217°
2026-05-08 05:11 34.62258 132.49953 39893 ft 412 kts 217°
2026-05-08 05:11 34.57206 132.46666 39896 ft 413 kts 217°
2026-05-08 05:12 34.52189 132.43405 39896 ft 413 kts 217°
2026-05-08 05:12 34.47118 132.40113 39905 ft 414 kts 217°
2026-05-08 05:13 34.42036 132.36822 39882 ft 414 kts 217°
2026-05-08 05:13 34.36953 132.33534 39888 ft 414 kts 217°
2026-05-08 05:14 34.31880 132.30233 39897 ft 414 kts 217°
2026-05-08 05:14 34.26844 132.26957 39899 ft 414 kts 217°
2026-05-08 05:15 34.21759 132.23659 39884 ft 415 kts 217°
2026-05-08 05:15 34.16669 132.20363 39896 ft 415 kts 217°
2026-05-08 05:16 34.11568 132.17068 39910 ft 416 kts 217°
2026-05-08 05:16 34.06499 132.13814 39896 ft 418 kts 215°
2026-05-08 05:17 34.01142 132.10931 39898 ft 424 kts 211°
2026-05-08 05:17 33.95679 132.08242 39897 ft 424 kts 211°
2026-05-08 05:18 33.90240 132.05504 39907 ft 424 kts 212°
2026-05-08 05:18 33.84824 132.02715 39910 ft 423 kts 212°
2026-05-08 05:19 33.79452 131.99930 39911 ft 423 kts 212°
2026-05-08 05:19 33.74035 131.97135 39917 ft 424 kts 212°
2026-05-08 05:20 33.68617 131.94322 39915 ft 424 kts 212°
2026-05-08 05:20 33.63229 131.91524 39916 ft 425 kts 212°
2026-05-08 05:21 33.57801 131.88716 39916 ft 425 kts 212°
2026-05-08 05:21 33.52365 131.85909 39913 ft 426 kts 212°
2026-05-08 05:22 33.46924 131.83106 39911 ft 426 kts 212°
2026-05-08 05:22 33.41485 131.80307 39909 ft 426 kts 212°
2026-05-08 05:23 33.36075 131.77527 39922 ft 426 kts 212°
2026-05-08 05:23 33.30625 131.74729 39916 ft 426 kts 212°
2026-05-08 05:24 33.25173 131.71936 39936 ft 427 kts 212°
2026-05-08 05:24 33.19941 131.68744 39921 ft 419 kts 219°
2026-05-08 05:25 33.15007 131.65148 39925 ft 418 kts 220°
2026-05-08 05:25 33.10086 131.61475 39931 ft 418 kts 220°
2026-05-08 05:26 33.05163 131.57807 39938 ft 417 kts 220°
2026-05-08 05:26 33.00234 131.54148 39930 ft 418 kts 219°
2026-05-08 05:27 32.95314 131.50509 39937 ft 420 kts 219°
2026-05-08 05:27 32.90349 131.46844 39932 ft 420 kts 219°
2026-05-08 05:28 32.85381 131.43182 39941 ft 420 kts 219°
2026-05-08 05:28 32.80413 131.39526 39933 ft 420 kts 220°
2026-05-08 05:29 32.75459 131.35838 39948 ft 420 kts 220°
2026-05-08 05:29 32.70556 131.32146 39956 ft 421 kts 220°
2026-05-08 05:30 32.65594 131.28425 39936 ft 422 kts 220°
2026-05-08 05:30 32.60614 131.24708 39962 ft 423 kts 220°
2026-05-08 05:31 32.55621 131.20999 39958 ft 424 kts 220°
2026-05-08 05:31 32.50671 131.17320 39927 ft 423 kts 220°
2026-05-08 05:32 32.45684 131.13616 39972 ft 424 kts 220°
2026-05-08 05:32 32.40682 131.09902 39965 ft 425 kts 220°
2026-05-08 05:33 32.35636 131.06218 39970 ft 427 kts 219°
2026-05-08 05:33 32.30600 131.02588 39964 ft 428 kts 219°
2026-05-08 05:34 32.25514 130.98921 39971 ft 428 kts 219°
2026-05-08 05:34 32.20429 130.95253 39972 ft 429 kts 219°
2026-05-08 05:35 32.15341 130.91586 39971 ft 429 kts 219°
2026-05-08 05:35 32.10236 130.87905 39977 ft 430 kts 219°
2026-05-08 05:36 32.05199 130.84209 39969 ft 429 kts 220°
2026-05-08 05:36 32.00134 130.80478 39965 ft 430 kts 220°
2026-05-08 05:37 31.95052 130.76750 39971 ft 431 kts 219°
2026-05-08 05:37 31.89995 130.73055 39965 ft 431 kts 219°
2026-05-08 05:38 31.84908 130.69346 39952 ft 431 kts 219°
2026-05-08 05:38 31.79806 130.65630 39969 ft 432 kts 219°
2026-05-08 05:39 31.74697 130.61913 39965 ft 432 kts 219°
2026-05-08 05:39 31.69875 130.57834 39940 ft 422 kts 229°
2026-05-08 05:40 31.66020 130.52735 39977 ft 416 kts 236°
2026-05-08 05:40 31.62497 130.47404 40015 ft 416 kts 237°
2026-05-08 05:41 31.58984 130.41999 39991 ft 416 kts 237°
2026-05-08 05:41 31.55459 130.36613 39994 ft 416 kts 237°
2026-05-08 05:42 31.51918 130.31240 40012 ft 416 kts 237°
2026-05-08 05:42 31.48396 130.25915 40017 ft 416 kts 237°
2026-05-08 05:43 31.44845 130.20552 40011 ft 416 kts 237°
2026-05-08 05:43 31.41296 130.15198 39999 ft 417 kts 237°
2026-05-08 05:44 31.37739 130.09837 40025 ft 417 kts 237°
2026-05-08 05:44 31.34204 130.04517 40022 ft 417 kts 237°
2026-05-08 05:45 31.30642 129.99165 40022 ft 417 kts 237°
2026-05-08 05:45 31.27072 129.93816 40022 ft 418 kts 237°
2026-05-08 05:46 31.23508 129.88474 40023 ft 419 kts 237°
2026-05-08 05:46 31.19949 129.83145 40023 ft 419 kts 237°
2026-05-08 05:47 31.16361 129.77781 40028 ft 419 kts 237°
2026-05-08 05:47 31.12770 129.72421 40026 ft 420 kts 237°
2026-05-08 05:48 31.09170 129.67056 40029 ft 420 kts 237°
2026-05-08 05:48 31.05592 129.61732 40031 ft 420 kts 237°
2026-05-08 05:49 31.01986 129.56372 40041 ft 420 kts 237°
2026-05-08 05:49 30.98376 129.51015 40036 ft 421 kts 237°
2026-05-08 05:50 30.94756 129.45648 40035 ft 421 kts 237°
2026-05-08 05:50 30.91153 129.40316 40038 ft 421 kts 237°
2026-05-08 05:51 30.87529 129.34960 40021 ft 421 kts 237°
2026-05-08 05:51 30.83898 129.29600 40040 ft 422 kts 237°
2026-05-08 05:52 30.80261 129.24239 40041 ft 422 kts 237°
2026-05-08 05:52 30.76644 129.18915 40042 ft 422 kts 237°
2026-05-08 05:53 30.73074 129.13516 40009 ft 421 kts 238°
2026-05-08 05:53 30.69539 129.08083 40045 ft 422 kts 238°
2026-05-08 05:54 30.65989 129.02657 40046 ft 422 kts 238°
2026-05-08 05:54 30.62449 128.97277 40048 ft 422 kts 238°
2026-05-08 05:55 30.58881 128.91871 40029 ft 422 kts 238°
2026-05-08 05:55 30.55309 128.86465 40058 ft 422 kts 238°
2026-05-08 05:56 30.51733 128.81061 40054 ft 422 kts 238°
2026-05-08 05:56 30.48156 128.75661 40043 ft 422 kts 238°
2026-05-08 05:57 30.44603 128.70305 40017 ft 422 kts 238°
2026-05-08 05:57 30.41020 128.64911 40069 ft 423 kts 238°
2026-05-08 05:58 30.37433 128.59517 40057 ft 423 kts 238°
2026-05-08 05:58 30.33843 128.54127 40063 ft 423 kts 238°
2026-05-08 05:59 30.30276 128.48780 40029 ft 423 kts 238°
2026-05-08 05:59 30.26680 128.43395 40062 ft 423 kts 238°
2026-05-08 06:00 30.23083 128.38016 40062 ft 423 kts 238°
2026-05-08 06:00 30.19487 128.32647 40064 ft 422 kts 238°
2026-05-08 06:01 30.15887 128.27278 40066 ft 422 kts 238°
2026-05-08 06:01 30.12308 128.21947 40064 ft 423 kts 238°
2026-05-08 06:02 30.08702 128.16583 40070 ft 423 kts 238°
2026-05-08 06:02 30.05097 128.11228 40066 ft 423 kts 238°
2026-05-08 06:03 30.01485 128.05869 40069 ft 423 kts 238°
2026-05-08 06:03 29.97893 128.00548 40069 ft 423 kts 238°
2026-05-08 06:04 29.94276 127.95197 40087 ft 423 kts 238°
2026-05-08 06:04 29.90655 127.89846 40072 ft 424 kts 238°
2026-05-08 06:05 29.87030 127.84498 40072 ft 424 kts 238°
2026-05-08 06:05 29.83328 127.79252 40071 ft 426 kts 235°
2026-05-08 06:06 29.79432 127.74105 40072 ft 426 kts 234°
2026-05-08 06:06 29.75533 127.68962 40073 ft 426 kts 235°
2026-05-08 06:07 29.71655 127.63793 40071 ft 427 kts 235°
2026-05-08 06:07 29.67785 127.58613 40066 ft 427 kts 235°
2026-05-08 06:08 29.63940 127.53469 40072 ft 427 kts 235°
2026-05-08 06:08 29.60063 127.48292 40075 ft 427 kts 235°
2026-05-08 06:09 29.56227 127.43081 40079 ft 426 kts 237°
2026-05-08 06:09 29.52571 127.37727 40065 ft 426 kts 238°
2026-05-08 06:10 29.48952 127.32390 40069 ft 427 kts 237°
2026-05-08 06:10 29.45275 127.27039 40070 ft 427 kts 237°
2026-05-08 06:11 29.41577 127.21702 40080 ft 427 kts 237°
2026-05-08 06:11 29.37875 127.16371 40040 ft 427 kts 237°
2026-05-08 06:12 29.34191 127.11071 40078 ft 428 kts 237°
2026-05-08 06:12 29.30477 127.05734 40081 ft 428 kts 237°
2026-05-08 06:13 29.26761 127.00399 40081 ft 428 kts 237°
2026-05-08 06:13 29.23042 126.95068 40086 ft 428 kts 237°
2026-05-08 06:14 29.19319 126.89737 40079 ft 429 kts 237°
2026-05-08 06:14 29.15616 126.84442 40083 ft 429 kts 237°
2026-05-08 06:15 29.11881 126.79108 40084 ft 429 kts 237°
2026-05-08 06:15 29.08143 126.73779 40094 ft 430 kts 237°
2026-05-08 06:16 29.04406 126.68455 40075 ft 430 kts 237°
2026-05-08 06:16 29.00688 126.63165 40085 ft 430 kts 237°
2026-05-08 06:17 28.95038 126.55187 40083 ft 431 kts 236°
2026-05-08 06:17 28.91155 126.49958 40091 ft 432 kts 236°
2026-05-08 06:18 28.87276 126.44779 40076 ft 432 kts 236°
2026-05-08 06:18 28.83382 126.39556 40078 ft 432 kts 236°
2026-05-08 06:19 28.79498 126.34332 40081 ft 432 kts 236°
2026-05-08 06:19 28.75609 126.29106 40081 ft 432 kts 236°
2026-05-08 06:20 28.71718 126.23883 40089 ft 433 kts 236°
2026-05-08 06:20 28.67839 126.18683 40089 ft 434 kts 236°
2026-05-08 06:21 28.63927 126.13447 40085 ft 434 kts 236°
2026-05-08 06:21 28.60080 126.08166 40065 ft 433 kts 237°
2026-05-08 06:22 28.56334 126.02813 40079 ft 432 kts 238°
2026-05-08 06:22 28.52608 125.97505 40070 ft 433 kts 237°
2026-05-08 06:23 28.48833 125.92175 40068 ft 433 kts 237°
2026-05-08 06:23 28.45048 125.86855 40064 ft 433 kts 237°
2026-05-08 06:24 28.41260 125.81541 40067 ft 433 kts 237°
2026-05-08 06:24 28.37493 125.76259 40075 ft 433 kts 237°
2026-05-08 06:25 28.33692 125.70936 40077 ft 434 kts 237°
2026-05-08 06:25 28.29886 125.65612 40076 ft 434 kts 237°
2026-05-08 06:26 28.26080 125.60297 40072 ft 434 kts 237°
2026-05-08 06:26 28.22271 125.54983 40067 ft 434 kts 237°
2026-05-08 06:27 28.18477 125.49696 40082 ft 436 kts 237°
2026-05-08 06:27 28.14650 125.44370 40077 ft 436 kts 237°
2026-05-08 06:28 28.10821 125.39049 40072 ft 436 kts 237°
2026-05-08 06:28 28.06990 125.33731 40075 ft 436 kts 237°
2026-05-08 06:29 28.03155 125.28414 40071 ft 437 kts 237°
2026-05-08 06:29 27.99337 125.23125 40079 ft 437 kts 237°
2026-05-08 06:30 27.95483 125.17797 40074 ft 438 kts 237°
2026-05-08 06:30 27.91628 125.12472 40075 ft 437 kts 237°
2026-05-08 06:31 27.87794 125.07184 40064 ft 437 kts 237°
2026-05-08 06:31 27.83931 125.01861 40073 ft 438 kts 237°
2026-05-08 06:32 27.80064 124.96539 40075 ft 439 kts 237°
2026-05-08 06:32 27.76189 124.91214 40075 ft 439 kts 237°
2026-05-08 06:33 27.72311 124.85890 40075 ft 439 kts 237°
2026-05-08 06:33 27.68454 124.80602 40074 ft 440 kts 237°
2026-05-08 06:34 27.64560 124.75270 40072 ft 441 kts 237°
2026-05-08 06:34 27.60658 124.69936 40075 ft 441 kts 237°
2026-05-08 06:35 27.56759 124.64603 40069 ft 441 kts 237°
2026-05-08 06:35 27.52888 124.59310 40053 ft 440 kts 237°
2026-05-08 06:36 27.48984 124.53978 40073 ft 442 kts 237°
2026-05-08 06:36 27.45064 124.48633 40073 ft 443 kts 237°
2026-05-08 06:37 27.41137 124.43289 40074 ft 443 kts 237°
2026-05-08 06:37 27.37234 124.37982 40076 ft 443 kts 237°
2026-05-08 06:38 27.33309 124.32652 40068 ft 443 kts 236°
2026-05-08 06:38 27.29370 124.27308 40070 ft 444 kts 236°
2026-05-08 06:39 27.25424 124.21962 40067 ft 444 kts 236°
2026-05-08 06:39 27.21663 124.16874 40067 ft 444 kts 236°
2026-05-08 06:40 27.17713 124.11535 40065 ft 444 kts 236°
2026-05-08 06:40 27.13758 124.06196 40069 ft 446 kts 236°
2026-05-08 06:41 27.09780 124.00831 40066 ft 447 kts 236°
2026-05-08 06:41 27.05806 123.95511 40062 ft 448 kts 236°
2026-05-08 06:42 27.01785 123.90180 40062 ft 447 kts 236°
2026-05-08 06:42 26.97765 123.84857 40066 ft 447 kts 236°
2026-05-08 06:43 26.93742 123.79525 40072 ft 449 kts 236°
2026-05-08 06:43 26.89704 123.74178 40065 ft 450 kts 236°
2026-05-08 06:44 26.85686 123.68866 40055 ft 450 kts 236°
2026-05-08 06:44 26.81647 123.63533 40049 ft 449 kts 236°
2026-05-08 06:45 26.77606 123.58201 40049 ft 449 kts 236°
2026-05-08 06:45 26.73564 123.52875 40041 ft 449 kts 236°
2026-05-08 06:46 26.69544 123.47585 40060 ft 449 kts 236°
2026-05-08 06:46 26.65495 123.42264 40061 ft 449 kts 236°
2026-05-08 06:47 26.61441 123.36953 40051 ft 449 kts 236°
2026-05-08 06:47 26.57385 123.31630 40052 ft 450 kts 236°
2026-05-08 06:48 26.53319 123.26301 40051 ft 451 kts 236°
2026-05-08 06:48 26.49271 123.21006 40043 ft 451 kts 236°
2026-05-08 06:49 26.45195 123.15683 40051 ft 451 kts 236°
2026-05-08 06:49 26.41118 123.10364 40038 ft 451 kts 236°
2026-05-08 06:50 26.37029 123.05034 40051 ft 454 kts 235°
2026-05-08 06:50 26.32947 122.99720 40050 ft 454 kts 235°
2026-05-08 06:51 26.28824 122.94375 39778 ft 454 kts 235°
2026-05-08 06:51 26.26767 122.91702 39544 ft 454 kts 236°
2026-05-08 06:51 26.24710 122.89030 39317 ft 454 kts 236°
2026-05-08 06:52 26.22650 122.86358 39066 ft 454 kts 236°
2026-05-08 06:52 26.20589 122.83684 38834 ft 456 kts 236°
2026-05-08 06:52 26.18527 122.81011 38481 ft 454 kts 236°
2026-05-08 06:52 26.16497 122.78386 37887 ft 452 kts 235°
2026-05-08 06:53 26.14451 122.75740 37217 ft 451 kts 235°
2026-05-08 06:53 26.12404 122.73094 36549 ft 451 kts 235°
2026-05-08 06:53 26.10355 122.70445 35870 ft 452 kts 234°
2026-05-08 06:53 26.08303 122.67793 35156 ft 453 kts 234°
2026-05-08 06:54 26.06244 122.65133 34356 ft 455 kts 234°
2026-05-08 06:54 26.04171 122.62456 33486 ft 459 kts 233°
2026-05-08 06:54 26.02083 122.59761 32605 ft 461 kts 233°
2026-05-08 06:54 25.99981 122.57054 31781 ft 463 kts 233°
2026-05-08 06:55 25.97883 122.54356 31179 ft 459 kts 233°
2026-05-08 06:55 25.95828 122.51716 30592 ft 456 kts 233°
2026-05-08 06:55 25.93760 122.49061 29976 ft 453 kts 233°
2026-05-08 06:55 25.91709 122.46431 29306 ft 449 kts 233°
2026-05-08 06:56 25.89675 122.43814 28704 ft 445 kts 233°
2026-05-08 06:56 25.87660 122.41224 28099 ft 441 kts 233°
2026-05-08 06:56 25.85662 122.38658 27522 ft 437 kts 233°
2026-05-08 06:56 25.83705 122.36146 26911 ft 434 kts 232°
2026-05-08 06:57 25.81737 122.33623 26358 ft 431 kts 232°
2026-05-08 06:57 25.79782 122.31118 25773 ft 428 kts 232°
2026-05-08 06:57 25.77835 122.28628 25197 ft 426 kts 232°
2026-05-08 06:57 25.75899 122.26147 24615 ft 424 kts 232°
2026-05-08 06:58 25.73970 122.23675 24026 ft 423 kts 232°
2026-05-08 06:58 25.72058 122.21229 23679 ft 414 kts 232°
2026-05-08 06:58 25.70202 122.18859 23394 ft 401 kts 232°
2026-05-08 06:58 25.68397 122.16554 23120 ft 391 kts 232°
2026-05-08 06:59 25.66650 122.14324 22609 ft 387 kts 232°
2026-05-08 06:59 25.64898 122.12086 22131 ft 382 kts 232°
2026-05-08 06:59 25.63165 122.09861 21543 ft 381 kts 232°
2026-05-08 06:59 25.61683 122.07460 21003 ft 374 kts 245°
2026-05-08 07:00 25.60766 122.04800 20572 ft 367 kts 255°
2026-05-08 07:00 25.60070 122.02094 20127 ft 362 kts 256°
2026-05-08 07:00 25.59401 121.99417 19654 ft 360 kts 256°
2026-05-08 07:00 25.58731 121.96752 19142 ft 358 kts 256°
2026-05-08 07:01 25.58062 121.94107 18664 ft 356 kts 256°
2026-05-08 07:01 25.57403 121.91515 18180 ft 353 kts 256°
2026-05-08 07:01 25.56741 121.88917 17706 ft 349 kts 256°
2026-05-08 07:01 25.56084 121.86343 17212 ft 345 kts 256°
2026-05-08 07:02 25.55434 121.83800 16736 ft 342 kts 256°
2026-05-08 07:02 25.54786 121.81266 16149 ft 342 kts 256°
2026-05-08 07:02 25.54141 121.78745 15635 ft 340 kts 255°
2026-05-08 07:02 25.53498 121.76237 15201 ft 337 kts 255°
2026-05-08 07:03 25.52872 121.73796 15046 ft 333 kts 255°
2026-05-08 07:03 25.52239 121.71329 15022 ft 333 kts 256°
2026-05-08 07:03 25.51604 121.68864 15023 ft 333 kts 256°
2026-05-08 07:03 25.50972 121.66409 15022 ft 332 kts 255°
2026-05-08 07:04 25.50341 121.63949 15022 ft 332 kts 255°
2026-05-08 07:04 25.49707 121.61484 15026 ft 334 kts 255°
2026-05-08 07:04 25.49033 121.59012 15016 ft 337 kts 252°
2026-05-08 07:04 25.47971 121.56706 15022 ft 338 kts 237°
2026-05-08 07:05 25.46515 121.54699 15022 ft 340 kts 232°
2026-05-08 07:05 25.44965 121.52730 15018 ft 339 kts 232°
2026-05-08 07:05 25.43427 121.50776 14792 ft 334 kts 232°
2026-05-08 07:05 25.41907 121.48840 14214 ft 335 kts 231°
2026-05-08 07:06 25.40387 121.46899 13768 ft 331 kts 231°
2026-05-08 07:06 25.38876 121.44977 13177 ft 331 kts 232°
2026-05-08 07:06 25.37377 121.43065 12641 ft 328 kts 231°
2026-05-08 07:06 25.35891 121.41164 12197 ft 326 kts 232°
2026-05-08 07:07 25.34443 121.39314 11843 ft 319 kts 231°
2026-05-08 07:07 25.32995 121.37464 11271 ft 318 kts 231°
2026-05-08 07:07 25.31563 121.35636 10888 ft 308 kts 231°
2026-05-08 07:07 25.30215 121.33919 10582 ft 285 kts 231°
2026-05-08 07:08 25.28944 121.32299 10025 ft 280 kts 230°
2026-05-08 07:08 25.27656 121.30654 9430 ft 284 kts 230°
2026-05-08 07:08 25.26374 121.29020 9016 ft 276 kts 230°
2026-05-08 07:08 25.25131 121.27435 8619 ft 273 kts 230°
2026-05-08 07:09 25.23896 121.25861 8208 ft 275 kts 229°
2026-05-08 07:09 25.22646 121.24274 7821 ft 274 kts 229°
2026-05-08 07:09 25.21404 121.22694 7518 ft 271 kts 230°
2026-05-08 07:09 25.20173 121.21128 7290 ft 269 kts 230°
2026-05-08 07:10 25.18955 121.19577 7109 ft 266 kts 230°
2026-05-08 07:10 25.17747 121.18040 7029 ft 266 kts 230°
2026-05-08 07:10 25.16528 121.16494 7008 ft 267 kts 230°
2026-05-08 07:10 25.15306 121.14941 6706 ft 267 kts 230°
2026-05-08 07:11 25.14115 121.13428 6216 ft 262 kts 230°
2026-05-08 07:11 25.12923 121.11912 5517 ft 263 kts 229°
2026-05-08 07:11 25.11706 121.10365 4975 ft 265 kts 229°
2026-05-08 07:11 25.10527 121.08876 4697 ft 250 kts 228°
2026-05-08 07:12 25.09407 121.07449 4483 ft 245 kts 228°
2026-05-08 07:12 25.08284 121.06020 4274 ft 247 kts 229°
2026-05-08 07:12 25.07160 121.04591 4072 ft 247 kts 228°
2026-05-08 07:12 25.06037 121.03162 3809 ft 246 kts 228°
2026-05-08 07:13 25.04948 121.01761 3588 ft 241 kts 229°
2026-05-08 07:13 25.03877 121.00389 3447 ft 232 kts 228°
2026-05-08 07:13 25.02849 120.99045 3313 ft 229 kts 227°
2026-05-08 07:13 25.01763 120.97744 3152 ft 231 kts 215°
2026-05-08 07:14 25.00335 120.97090 3078 ft 218 kts 178°
2026-05-08 07:14 24.98961 120.97365 3054 ft 188 kts 146°
2026-05-08 07:14 24.97904 120.98134 3040 ft 181 kts 137°
2026-05-08 07:14 24.96931 120.98991 2989 ft 182 kts 135°
2026-05-08 07:15 24.95965 120.99877 2935 ft 179 kts 129°
2026-05-08 07:15 24.95456 121.01051 2888 ft 166 kts 91°
2026-05-08 07:15 24.95483 121.02308 2839 ft 165 kts 82°
2026-05-08 07:15 24.95625 121.03562 2787 ft 164 kts 80°
2026-05-08 07:16 24.95787 121.04810 2741 ft 165 kts 80°
2026-05-08 07:16 24.95942 121.06057 2701 ft 163 kts 80°
2026-05-08 07:16 24.96213 121.07256 2648 ft 162 kts 62°
2026-05-08 07:16 24.96856 121.08258 2600 ft 160 kts 51°
2026-05-08 07:17 24.97565 121.09184 2540 ft 161 kts 53°
2026-05-08 07:17 24.98288 121.10143 2524 ft 163 kts 53°
2026-05-08 07:17 24.99010 121.11098 2509 ft 160 kts 53°
2026-05-08 07:17 24.99706 121.11999 2340 ft 149 kts 52°
2026-05-08 07:18 25.00352 121.12811 2152 ft 139 kts 52°
2026-05-08 07:18 25.00978 121.13608 1963 ft 137 kts 51°
2026-05-08 07:18 25.01611 121.14409 1789 ft 140 kts 51°
2026-05-08 07:18 25.02253 121.15222 1598 ft 141 kts 51°
2026-05-08 07:19 25.02893 121.16035 1411 ft 139 kts 51°
2026-05-08 07:19 25.03496 121.16799 1240 ft 128 kts 52°
2026-05-08 07:19 25.04053 121.17508 1069 ft 118 kts 51°
2026-05-08 07:19 25.04584 121.18181 933 ft 116 kts 50°
2026-05-08 07:20 25.05146 121.18871 801 ft 128 kts 49°
2026-05-08 07:20 25.05734 121.19625 633 ft 129 kts 50°
2026-05-08 07:20 25.06312 121.20359 426 ft 126 kts 50°
2026-05-08 07:20 25.06877 121.21087 263 ft 123 kts 47°
2026-05-08 07:21 25.07441 121.21793 136 ft 122 kts 46°
2026-05-08 07:21 25.07968 121.22463 107 ft 96 kts 50°
2026-05-08 07:21 25.08257 121.22828 106 ft 40 kts 49°
2026-05-08 07:21 25.08381 121.22996 104 ft 17 kts 58°
2026-05-08 07:22 25.08424 121.23104 106 ft 15 kts 71°
2026-05-08 07:22 25.08445 121.23202 106 ft 12 kts 79°
2026-05-08 07:22 25.08461 121.23297 106 ft 13 kts 79°
2026-05-08 07:22 25.08478 121.23397 107 ft 13 kts 82°
2026-05-08 07:23 25.08447 121.23485 105 ft 12 kts 133°
2026-05-08 07:23 25.08442 121.23552 105 ft 9 kts 62°
2026-05-08 07:23 25.08480 121.23604 106 ft 8 kts 53°
2026-05-08 07:23 25.08477 121.23651 106 ft 7 kts 121°
2026-05-08 07:24 25.08442 121.23689 104 ft 7 kts 139°
2026-05-08 07:24 25.08419 121.23711 104 ft 3 kts 139°
2026-05-08 07:24 25.08406 121.23723 105 ft 2 kts 139°
2026-05-08 07:24 25.08402 121.23727 107 ft 0 kts 139°